Flag for Bosnia-Herzegovina Weather past 2 weeks in Mostar, Bosnia-Herzegovina

Now
57 °F

Passing clouds.


Feels Like: 57 °F
Forecast: 36 / 50 °F
Wind: 2 mph from North

Location: Mostar

Current Time: Mar 3, 2015 at 11:04:15 AM

Latest Report: Mar 3, 2015 at 10:30 AM


Visibility: N/A

Pressure: 30.12 "Hg

Humidity: 39%

Dew point: 32 °F

Location of MostarLocation

Historic Weather in Mostar — Graph

°F

Mostar temperature yesterday

Maximum temperature yesterday: 57 °F (at 12:30 PM)
Minimum temperature yesterday: 39 °F (at 6:00 AM)
Average temperature yesterday: 49 °F

Past Weeks' High & Low Weather Summary

 TemperatureHumidityPressure
High63 °F (Feb 16, 2:30 PM)100% (Feb 24, 3:00 AM)30.54 "Hg (Feb 24, 3:00 AM)
Low23 °F (Feb 20, 6:30 AM)11% (Feb 19, 2:30 PM)29.53 "Hg (Feb 22, 3:30 PM)
Average48 °F62%29.97 "Hg
* Reported Feb 16 10:00 AM — Mar 3 10:00 AM, Mostar, Weather by CustomWeather, © 2015

Note: Actual official high and low records may vary slightly from our data, if they occured in-between our weather recording intervals... More about our weather records

Advertising

Mostar weather history for previous 24 hours

 ConditionsComfort  
Time TempWeatherWind HumidityBarometerVisibility
10:00 AM
Tue, Mar 3
55 °FSunny.2 mph55%30.12 "Hg10 mi
9:30 AM54 °FPassing clouds.5 mph54%30.09 "HgN/A
9:00 AM50 °FSunny.5 mph71%30.09 "Hg10 mi
8:00 AM46 °FPassing clouds.2 mph82%30.07 "HgN/A
7:00 AM41 °FPassing clouds.5 mph93%30.04 "HgN/A
5:00 AM46 °FPassing clouds.5 mph76%29.98 "HgN/A
4:00 AM48 °FPassing clouds.5 mph82%29.95 "HgN/A
3:00 AM50 °FPassing clouds.6 mph71%29.95 "HgN/A
2:00 AM46 °FSprinkles. Passing clouds.5 mph100%29.92 "Hg4 mi
1:00 AM46 °FSprinkles. Passing clouds.5 mph93%29.89 "Hg4 mi
12:00 AM46 °FSprinkles. Passing clouds.7 mph100%29.89 "Hg4 mi
10:49 PM
Mon, Mar 2
48 °FLight rain. Mostly cloudy.8 mph94%29.89 "Hg4 mi
10:00 PM48 °FRain. Passing clouds.3 mph94%29.89 "Hg4 mi
9:00 PM48 °FRain. Mostly cloudy.3 mph94%29.89 "Hg4 mi
8:00 PM48 °FRain. Mostly cloudy.6 mph100%29.92 "Hg4 mi
7:00 PM48 °FRain. Mostly cloudy.7 mph94%29.92 "Hg4 mi
6:00 PM50 °FRain. Partly cloudy.6 mph88%29.95 "Hg4 mi
5:00 PM52 °FLight rain. Broken clouds.9 mph82%29.92 "HgN/A
4:00 PM55 °FLight rain. Partly sunny.9 mph63%29.95 "HgN/A
3:30 PM55 °FBroken clouds.13 mph59%29.95 "HgN/A
3:00 PM57 °FPartly sunny.10 mph55%29.92 "HgN/A
2:30 PM57 °FPartly sunny.13 mph55%29.95 "HgN/A
2:00 PM57 °FBroken clouds.12 mph55%29.95 "HgN/A
1:30 PM57 °FBroken clouds.9 mph59%29.98 "HgN/A
1:00 PM57 °FBroken clouds.8 mph59%29.98 "HgN/A
12:30 PM57 °FBroken clouds.6 mph59%29.98 "HgN/A
12:00 PM55 °FBroken clouds.3 mph63%30.01 "HgN/A
11:30 AM54 °FPartly sunny.2 mph67%30.01 "HgN/A
11:00 AM54 °FBroken clouds.5 mph67%30.01 "HgN/A
Weather by CustomWeather, © 2015

See weather overviewHow to use our weather pages